Location: Mascot Post Office (historical)
(40.2645°N, 99.5462°W)
Time: 20:33:23
(UTC+00:00)

ATLAS 5 CENTAUR R/B - Visible Passes

Search period start: 29 October 2020 00:00
Search period end: 08 November 2020 00:00
Orbit: 527 x 1131 km, 63.4° (Epoch: 28 October)

Date Brightness Start Highest point End Pass type
(mag) Time Alt. Az. Time Alt. Az. Time Alt. Az.
05 Nov 4.7 02:34:38 10° N 02:34:46 11° N 02:34:46 11° N visible
06 Nov 4.5 02:15:28 10° N 02:16:12 13° N 02:16:12 13° N visible
07 Nov 4.2 01:56:19 10° N 01:57:41 15° N 01:57:41 15° N visible
